Location: Bletchingley
(51.2333°N, 0.1000°W)
Time: 05:08:17
(UTC+00:00)

Lacrosse 4 Rocket - Pass Details

Date: 18 September 2020
Orbit: 543 x 615 km, 68.0° (Epoch: 20 October)

Event Time Altitude Azimuth Distance (km) Brightness Sun altitude
Rises 22:35:47 0° 319° (NW) 2,718 5.8 -34.8°
Reaches altitude 10° 22:38:04 10° 312° (NW) 1,824 4.6 -34.9°
Enters shadow 22:38:28 12° 309° (NW) 1,674 4.4 -35.0°
